Location: Boiro
(42.6475°N, 8.8834°W)
Time: 08:27:37
(UTC+01:00)

Vanguard 2 - Pass Details

Date: 04 December 2021
Orbit: 553 x 2936 km, 32.9° (Epoch: 19 January)

Event Time Altitude Azimuth Distance (km) Brightness Sun altitude
Rises 14:57:53 0° 232° (SW) 2,839 11.5 21.7°
Reaches altitude 10° 15:00:12 10° 218° (SW) 2,070 11.5 21.5°
Maximum altitude 15:04:06 26° 161° (SSE) 1,543 10.0 21.2°
Drops below altitude 10° 15:09:24 10° 107° (ESE) 2,894 10.5 20.8°
Sets 15:13:18 0° 97° (E) 4,272 11.1 20.5°
